Hourly Weather Muravino

Today, 19 September, Sunday

Time Temperature Precipitation Wind Pressure Humidity
00:00 +1°C° 0 mm 2 mps 756 mmHg 86%
01:00 +2°C° 0 mm 2 mps 756 mmHg 85%
02:00 +2°C° 0 mm 2 mps 755 mmHg 86%
03:00 +2°C° 0 mm 2 mps 755 mmHg 86%
04:00 +1°C° 0 mm 2 mps 756 mmHg 87%
05:00 +1°C° 0 mm 2 mps 756 mmHg 88%
06:00 +2°C° 0 mm 3 mps 756 mmHg 81%
07:00 +3°C° 0 mm 3 mps 756 mmHg 75%
08:00 +4°C° 0 mm 4 mps 756 mmHg 68%
09:00 +5°C° 0 mm 4 mps 756 mmHg 64%
10:00 +6°C° 0 mm 4 mps 756 mmHg 60%
11:00 +6°C° 0 mm 5 mps 755 mmHg 56%
12:00 +6°C° 0 mm 5 mps 755 mmHg 57%
13:00 +7°C° 0 mm 4 mps 755 mmHg 57%
14:00 +7°C° 0 mm 4 mps 755 mmHg 58%
15:00 +6°C° 0 mm 4 mps 755 mmHg 60%
16:00 +6°C° 0 mm 4 mps 755 mmHg 62%
17:00 +6°C° 0 mm 4 mps 755 mmHg 64%
18:00 +5°C° 0 mm 4 mps 755 mmHg 66%
19:00 +5°C° 0 mm 4 mps 755 mmHg 67%
20:00 +5°C° 0 mm 4 mps 754 mmHg 69%
21:00 +4°C° 0 mm 4 mps 755 mmHg 71%
22:00 +3°C° 0 mm 5 mps 755 mmHg 72%
23:00 +3°C° 0 mm 5 mps 755 mmHg 74%

Tomorrow, 20 September, Monday

Time Temperature Precipitation Wind Pressure Humidity
00:00 +2°C° 0 mm 5 mps 755 mmHg 76%
01:00 +2°C° 0 mm 5 mps 755 mmHg 77%
02:00 +2°C° 0 mm 5 mps 754 mmHg 79%
03:00 +1°C° 0 mm 5 mps 754 mmHg 79%
04:00 +1°C° 0 mm 5 mps 754 mmHg 78%
05:00 +1°C° 0 mm 5 mps 754 mmHg 77%
06:00 +1°C° 0 mm 6 mps 754 mmHg 75%
07:00 +2°C° 0 mm 6 mps 755 mmHg 73%
08:00 +2°C° 0 mm 6 mps 755 mmHg 70%
09:00 +3°C° 0 mm 6 mps 755 mmHg 67%
10:00 +3°C° 0 mm 6 mps 755 mmHg 64%
11:00 +4°C° 0 mm 6 mps 754 mmHg 61%
12:00 +4°C° 0 mm 6 mps 754 mmHg 60%
13:00 +5°C° 0 mm 6 mps 754 mmHg 59%
14:00 +5°C° 0 mm 6 mps 754 mmHg 58%
15:00 +5°C° 0 mm 6 mps 754 mmHg 58%
16:00 +4°C° 0 mm 6 mps 753 mmHg 59%
17:00 +5°C° 0 mm 5 mps 753 mmHg 59%
18:00 +5°C° 0 mm 5 mps 753 mmHg 61%
19:00 +5°C° 0 mm 5 mps 753 mmHg 63%
20:00 +3°C° 0 mm 5 mps 753 mmHg 65%
21:00 +3°C° 0 mm 5 mps 753 mmHg 67%
22:00 +3°C° 0 mm 5 mps 753 mmHg 69%
23:00 +3°C° 0 mm 5 mps 752 mmHg 71%

Day after tomorrow, 21 September, Tuesday

Time Temperature Precipitation Wind Pressure Humidity
00:00 +3°C° 0 mm 5 mps 752 mmHg 76%
01:00 +2°C° 0 mm 5 mps 752 mmHg 80%
02:00 +2°C° 0 mm 5 mps 752 mmHg 85%
03:00 +2°C° 0.1 mm 5 mps 751 mmHg 87%
04:00 +2°C° 0.1 mm 5 mps 751 mmHg 88%
05:00 +2°C° 0.1 mm 5 mps 751 mmHg 90%
06:00 +2°C° 0.2 mm 5 mps 751 mmHg 90%
07:00 +2°C° 0.2 mm 5 mps 750 mmHg 90%
08:00 +2°C° 0.2 mm 5 mps 750 mmHg 90%
09:00 +2°C° 0.5 mm 5 mps 750 mmHg 92%
10:00 +2°C° 0.5 mm 5 mps 750 mmHg 93%
11:00 +2°C° 0.5 mm 5 mps 750 mmHg 95%
12:00 +3°C° 0.7 mm 5 mps 750 mmHg 95%
13:00 +3°C° 0.7 mm 5 mps 750 mmHg 95%
14:00 +3°C° 0.7 mm 5 mps 749 mmHg 95%
15:00 +3°C° 0.2 mm 5 mps 749 mmHg 95%
16:00 +3°C° 0.2 mm 5 mps 749 mmHg 94%
17:00 +3°C° 0.2 mm 5 mps 749 mmHg 93%
18:00 +3°C° 0.2 mm 5 mps 749 mmHg 93%
19:00 +3°C° 0.2 mm 5 mps 749 mmHg 93%
20:00 +5°C° 0.2 mm 5 mps 749 mmHg 93%
21:00 +5°C° 0.2 mm 4 mps 749 mmHg 92%
22:00 +5°C° 0.2 mm 4 mps 749 mmHg 92%
23:00 +5°C° 0.2 mm 4 mps 749 mmHg 92%

22 September, Wednesday

Time Temperature Precipitation Wind Pressure Humidity
00:00 +5°C° 0.4 mm 4 mps 749 mmHg 92%
01:00 +5°C° 0.4 mm 4 mps 749 mmHg 92%
02:00 +5°C° 0.4 mm 4 mps 749 mmHg 92%
03:00 +5°C° 0.3 mm 4 mps 749 mmHg 92%
04:00 +5°C° 0.3 mm 4 mps 749 mmHg 92%
05:00 +5°C° 0.3 mm 4 mps 749 mmHg 92%
06:00 +5°C° 0.1 mm 4 mps 749 mmHg 91%
07:00 +5°C° 0.1 mm 4 mps 749 mmHg 91%
08:00 +5°C° 0.1 mm 4 mps 750 mmHg 90%
09:00 +5°C° 0.1 mm 4 mps 750 mmHg 88%
10:00 +6°C° 0.1 mm 4 mps 750 mmHg 87%
11:00 +6°C° 0.1 mm 4 mps 750 mmHg 85%
12:00 +6°C° 0.3 mm 4 mps 750 mmHg 86%
13:00 +5°C° 0.3 mm 4 mps 750 mmHg 88%
14:00 +5°C° 0.3 mm 4 mps 750 mmHg 89%
15:00 +5°C° 0.2 mm 4 mps 750 mmHg 90%
16:00 +5°C° 0.2 mm 4 mps 750 mmHg 92%
17:00 +5°C° 0.2 mm 4 mps 750 mmHg 93%
18:00 +5°C° 0.2 mm 3 mps 750 mmHg 93%
19:00 +5°C° 0.2 mm 3 mps 750 mmHg 94%
20:00 +5°C° 0.2 mm 3 mps 751 mmHg 94%
21:00 +6°C° 0 mm 2 mps 750 mmHg 95%
22:00 +6°C° 0 mm 2 mps 750 mmHg 95%
23:00 +6°C° 0 mm 2 mps 750 mmHg 96%

23 September, Thursday

Time Temperature Precipitation Wind Pressure Humidity
00:00 +6°C° 0 mm 2 mps 750 mmHg 96%
01:00 +7°C° 0 mm 1 mps 750 mmHg 96%
02:00 +7°C° 0 mm 1 mps 750 mmHg 97%
03:00 +7°C° 0 mm 1 mps 750 mmHg 97%
04:00 +7°C° 0 mm 1 mps 749 mmHg 97%
05:00 +7°C° 0 mm 1 mps 749 mmHg 97%
06:00 +8°C° 0 mm 1 mps 749 mmHg 95%
07:00 +7°C° 0 mm 0 mps 749 mmHg 94%
08:00 +7°C° 0 mm 0 mps 749 mmHg 92%
09:00 +8°C° 0 mm 0 mps 748 mmHg 90%
10:00 +9°C° 0 mm 1 mps 748 mmHg 89%
11:00 +9°C° 0 mm 1 mps 748 mmHg 87%
12:00 +10°C° 0 mm 1 mps 748 mmHg 86%
13:00 +10°C° 0 mm 1 mps 748 mmHg 84%
14:00 +10°C° 0 mm 1 mps 747 mmHg 83%
15:00 +10°C° 0 mm 1 mps 747 mmHg 85%
16:00 +9°C° 0 mm 1 mps 747 mmHg 87%
17:00 +9°C° 0 mm 1 mps 747 mmHg 89%
18:00 +8°C° 0 mm 2 mps 747 mmHg 89%
19:00 +8°C° 0 mm 2 mps 746 mmHg 90%
20:00 +8°C° 0 mm 2 mps 746 mmHg 90%
21:00 +8°C° 0 mm 2 mps 746 mmHg 91%
22:00 +8°C° 0 mm 2 mps 745 mmHg 92%
23:00 +8°C° 0 mm 2 mps 745 mmHg 93%

24 September, Friday

Time Temperature Precipitation Wind Pressure Humidity
00:00 +8°C° 0.2 mm 2 mps 745 mmHg 94%
01:00 +8°C° 0.2 mm 2 mps 744 mmHg 95%
02:00 +8°C° 0.2 mm 2 mps 744 mmHg 96%
03:00 +8°C° 0.2 mm 2 mps 744 mmHg 96%
04:00 +8°C° 0.2 mm 2 mps 743 mmHg 96%
05:00 +8°C° 0.2 mm 2 mps 743 mmHg 95%
06:00 +8°C° 0 mm 2 mps 743 mmHg 92%
07:00 +8°C° 0 mm 3 mps 743 mmHg 89%
08:00 +8°C° 0 mm 3 mps 743 mmHg 86%
09:00 +9°C° 0.1 mm 3 mps 743 mmHg 81%
10:00 +10°C° 0.1 mm 4 mps 743 mmHg 76%
11:00 +10°C° 0.1 mm 5 mps 743 mmHg 71%
12:00 +11°C° 0.1 mm 4 mps 742 mmHg 70%
13:00 +11°C° 0.1 mm 4 mps 742 mmHg 69%
14:00 +11°C° 0.1 mm 4 mps 742 mmHg 68%
15:00 +10°C° 0.1 mm 3 mps 742 mmHg 71%
16:00 +9°C° 0.1 mm 3 mps 741 mmHg 74%
17:00 +9°C° 0.1 mm 3 mps 741 mmHg 77%
18:00 +8°C° 0 mm 2 mps 741 mmHg 80%
19:00 +8°C° 0 mm 2 mps 740 mmHg 82%
20:00 +8°C° 0 mm 2 mps 740 mmHg 84%
21:00 +8°C° 0.1 mm 2 mps 740 mmHg 85%
22:00 +7°C° 0.1 mm 2 mps 739 mmHg 87%
23:00 +7°C° 0.1 mm 2 mps 739 mmHg 88%
Show more

We Need Your Consent

Meteoprog and our Service Providers may store and access personal data such as cookies, device identifiers or other similar technologies on your device and process such data to personalise content and ads, as well as provide social media features and to analyse the traffic.

  • Store and/or access information on your device

    Cookies, device identifiers or other information can be stored or accessed on your device for the purposes indicated above.

  • Personalised ads and content, ad and content measurement, audience insights, and products development

    Ads and content can be personalised based on a profile. More data can be added to better personalise ads and content. Ad and content performance can be measured. Insights about the audience who saw the ads and content can be derived. Such data can be used to develop or improve user’s experience, systems and software.

By clicking ‘I Agree’ you will allow the use of indicated cookies, device identifiers, web beacons or other similar technologies. Your settings can be changed in the browser on your device.

For certain purposes, legitimate interests may be relied on, rather than consent. You can read more about this in our Privacy and Cookie Policy.